GLO309 SBCY-SBSP

Flight info

Callsign GLO309
Flight time 1h 45m
Altitude 39000
Route DIKUN DCT ASDOV DCT UTLOT
Aircraft B38M/M-SDE1FGHILORVWXY/HB1

Departure

Time 2026-04-15 14:47
Airport Várzea Grande–Marechal Rondon International Airport (SBCY)

Arrival

Time 2026-04-15 16:33
Airport Congonhas–Deputado Freitas Nobre Airport (SBSP)
Time Latitude Longitude Altitude Speed Heading
2026-04-15 14:32 -15.65153 -56.11921 599 ft 0 kts 243°
2026-04-15 14:35 -15.65151 -56.11918 599 ft 2 kts 241°
2026-04-15 14:35 -15.65144 -56.11903 599 ft 2 kts 244°
2026-04-15 14:36 -15.65131 -56.11893 599 ft 2 kts 180°
2026-04-15 14:36 -15.65115 -56.11896 599 ft 2 kts 160°
2026-04-15 14:36 -15.65102 -56.11902 599 ft 1 kts 155°
2026-04-15 14:36 -15.65099 -56.11903 599 ft 0 kts 154°
2026-04-15 14:40 -15.65114 -56.11895 599 ft 5 kts 152°
2026-04-15 14:41 -15.65172 -56.11864 600 ft 13 kts 152°
2026-04-15 14:41 -15.65280 -56.11806 600 ft 22 kts 152°
2026-04-15 14:41 -15.65438 -56.11722 600 ft 30 kts 153°
2026-04-15 14:41 -15.65645 -56.11612 599 ft 37 kts 153°
2026-04-15 14:42 -15.65887 -56.11484 599 ft 31 kts 153°
2026-04-15 14:42 -15.66094 -56.11375 599 ft 33 kts 153°
2026-04-15 14:42 -15.66238 -56.11294 599 ft 12 kts 132°
2026-04-15 14:42 -15.66245 -56.11278 599 ft 0 kts 109°
2026-04-15 14:45 -15.66246 -56.11277 599 ft 0 kts 109°
2026-04-15 14:45 -15.66248 -56.11263 599 ft 5 kts 92°
2026-04-15 14:45 -15.66228 -56.11210 600 ft 12 kts 47°
2026-04-15 14:46 -15.66156 -56.11212 599 ft 3 kts 333°
2026-04-15 14:46 -15.66126 -56.11228 599 ft 18 kts 333°
2026-04-15 14:46 -15.65767 -56.11418 600 ft 101 kts 333°
2026-04-15 14:47 -15.64904 -56.11881 602 ft 175 kts 331°
2026-04-15 14:47 -15.63688 -56.12520 1178 ft 204 kts 333°
2026-04-15 14:47 -15.62427 -56.13171 2337 ft 205 kts 334°
2026-04-15 14:47 -15.61107 -56.13765 3363 ft 212 kts 349°
2026-04-15 14:48 -15.59599 -56.13631 4183 ft 231 kts 25°
2026-04-15 14:48 -15.58429 -56.12437 5057 ft 250 kts 64°
2026-04-15 14:48 -15.58232 -56.10672 6321 ft 248 kts 95°
2026-04-15 14:48 -15.58673 -56.08914 7249 ft 260 kts 113°
2026-04-15 14:49 -15.59747 -56.07379 8220 ft 265 kts 133°
2026-04-15 14:49 -15.60979 -56.05936 9252 ft 269 kts 129°
2026-04-15 14:49 -15.62191 -56.04435 10205 ft 273 kts 130°
2026-04-15 14:49 -15.63426 -56.02920 11075 ft 277 kts 130°
2026-04-15 14:50 -15.64680 -56.01382 11909 ft 282 kts 131°
2026-04-15 14:50 -15.65959 -55.99819 12767 ft 286 kts 131°
2026-04-15 14:50 -15.67262 -55.98224 13576 ft 292 kts 131°
2026-04-15 14:50 -15.68590 -55.96597 14302 ft 300 kts 131°
2026-04-15 14:51 -15.69954 -55.94921 14776 ft 315 kts 131°
2026-04-15 14:51 -15.71406 -55.93131 15142 ft 334 kts 131°
2026-04-15 14:51 -15.72946 -55.91234 15559 ft 349 kts 131°
2026-04-15 14:51 -15.74533 -55.89280 16150 ft 356 kts 131°
2026-04-15 14:52 -15.76128 -55.87328 16969 ft 357 kts 131°
2026-04-15 14:52 -15.77752 -55.85341 17631 ft 362 kts 131°
2026-04-15 14:52 -15.79389 -55.83336 18326 ft 365 kts 131°
2026-04-15 14:52 -15.81035 -55.81320 18915 ft 368 kts 131°
2026-04-15 14:53 -15.82698 -55.79285 19501 ft 370 kts 131°
2026-04-15 14:53 -15.84368 -55.77240 20069 ft 374 kts 130°
2026-04-15 14:53 -15.86054 -55.75175 20635 ft 376 kts 130°
2026-04-15 14:53 -15.87757 -55.73089 21195 ft 379 kts 130°
2026-04-15 14:54 -15.89449 -55.71015 21743 ft 382 kts 130°
2026-04-15 14:54 -15.91175 -55.68899 22259 ft 385 kts 130°
2026-04-15 14:54 -15.92915 -55.66766 22805 ft 388 kts 130°
2026-04-15 14:54 -15.94667 -55.64618 23321 ft 391 kts 130°
2026-04-15 14:55 -15.96434 -55.62449 23776 ft 394 kts 130°
2026-04-15 14:55 -15.98211 -55.60270 24177 ft 398 kts 130°
2026-04-15 14:55 -16.00010 -55.58063 24558 ft 402 kts 129°
2026-04-15 14:55 -16.01824 -55.55837 24936 ft 405 kts 129°
2026-04-15 14:56 -16.03650 -55.53594 25322 ft 409 kts 129°
2026-04-15 14:56 -16.05496 -55.51327 25695 ft 412 kts 129°
2026-04-15 14:56 -16.07364 -55.49030 26060 ft 416 kts 129°
2026-04-15 14:56 -16.09238 -55.46727 26436 ft 420 kts 129°
2026-04-15 14:57 -16.11129 -55.44401 26824 ft 423 kts 129°
2026-04-15 14:57 -16.13039 -55.42052 27210 ft 426 kts 129°
2026-04-15 14:57 -16.14960 -55.39688 27585 ft 429 kts 129°
2026-04-15 14:57 -16.16897 -55.37305 27956 ft 432 kts 129°
2026-04-15 14:58 -16.18185 -55.35719 28199 ft 434 kts 129°
2026-04-15 14:58 -16.20803 -55.32494 28667 ft 438 kts 129°
2026-04-15 14:58 -16.22751 -55.30095 29011 ft 441 kts 129°
2026-04-15 14:58 -16.24741 -55.27642 29360 ft 444 kts 129°
2026-04-15 14:59 -16.26741 -55.25176 29690 ft 448 kts 129°
2026-04-15 14:59 -16.28757 -55.22690 30000 ft 451 kts 129°
2026-04-15 14:59 -16.30128 -55.20998 30200 ft 453 kts 129°
2026-04-15 14:59 -16.32140 -55.18517 30496 ft 455 kts 129°
2026-04-15 15:00 -16.34185 -55.15992 30806 ft 457 kts 129°
2026-04-15 15:00 -16.36241 -55.13453 31090 ft 460 kts 129°
2026-04-15 15:00 -16.38309 -55.10898 31391 ft 462 kts 130°
2026-04-15 15:00 -16.40383 -55.08336 31687 ft 464 kts 130°
2026-04-15 15:01 -16.42471 -55.05754 31970 ft 466 kts 130°
2026-04-15 15:01 -16.44566 -55.03163 32266 ft 468 kts 130°
2026-04-15 15:01 -16.46668 -55.00562 32548 ft 471 kts 130°
2026-04-15 15:01 -16.48784 -54.97944 32834 ft 473 kts 131°
2026-04-15 15:02 -16.50903 -54.95320 33101 ft 475 kts 131°
2026-04-15 15:02 -16.53044 -54.92670 33390 ft 477 kts 131°
2026-04-15 15:02 -16.55189 -54.90012 33654 ft 480 kts 131°
2026-04-15 15:02 -16.57338 -54.87349 33919 ft 482 kts 131°
2026-04-15 15:03 -16.59505 -54.84661 34164 ft 484 kts 131°
2026-04-15 15:03 -16.61648 -54.82003 34430 ft 485 kts 131°
2026-04-15 15:03 -16.63820 -54.79310 34764 ft 484 kts 132°
2026-04-15 15:03 -16.65983 -54.76627 35121 ft 483 kts 132°
2026-04-15 15:04 -16.68139 -54.73950 35472 ft 481 kts 132°
2026-04-15 15:04 -16.70293 -54.71275 35812 ft 480 kts 132°
2026-04-15 15:04 -16.72442 -54.68607 36177 ft 479 kts 132°
2026-04-15 15:04 -16.74583 -54.65946 36495 ft 478 kts 133°
2026-04-15 15:05 -16.76719 -54.63291 36827 ft 477 kts 133°
2026-04-15 15:05 -16.78845 -54.60647 37154 ft 475 kts 133°
2026-04-15 15:05 -16.80970 -54.58002 37478 ft 474 kts 133°
2026-04-15 15:05 -16.83060 -54.55401 37774 ft 473 kts 133°
2026-04-15 15:06 -16.87274 -54.50151 38371 ft 470 kts 133°
2026-04-15 15:06 -16.89375 -54.47532 38643 ft 469 kts 133°
2026-04-15 15:06 -16.91471 -54.44918 38849 ft 468 kts 133°
2026-04-15 15:07 -16.93570 -54.42300 38952 ft 468 kts 133°
2026-04-15 15:07 -16.95658 -54.39695 38954 ft 467 kts 133°
2026-04-15 15:07 -16.99823 -54.34494 38962 ft 466 kts 133°
2026-04-15 15:08 -17.03987 -54.29291 38963 ft 467 kts 133°
2026-04-15 15:08 -17.08096 -54.24153 38966 ft 467 kts 133°
2026-04-15 15:09 -17.12263 -54.18938 38965 ft 467 kts 133°
2026-04-15 15:09 -17.16429 -54.13720 38967 ft 468 kts 133°
2026-04-15 15:10 -17.20607 -54.08483 38974 ft 468 kts 133°
2026-04-15 15:10 -17.24783 -54.03244 38970 ft 468 kts 133°
2026-04-15 15:11 -17.28928 -53.98040 38972 ft 469 kts 133°
2026-04-15 15:11 -17.33068 -53.92768 38972 ft 469 kts 133°
2026-04-15 15:12 -17.37220 -53.87476 38974 ft 470 kts 133°
2026-04-15 15:12 -17.41365 -53.82190 38971 ft 470 kts 133°
2026-04-15 15:13 -17.45519 -53.76889 38970 ft 470 kts 133°
2026-04-15 15:13 -17.49669 -53.71589 38968 ft 471 kts 133°
2026-04-15 15:14 -17.53737 -53.66388 38975 ft 471 kts 133°
2026-04-15 15:14 -17.57895 -53.61069 38982 ft 472 kts 133°
2026-04-15 15:15 -17.62060 -53.55736 38976 ft 472 kts 133°
2026-04-15 15:15 -17.66222 -53.50402 38976 ft 472 kts 133°
2026-04-15 15:16 -17.70379 -53.45071 38976 ft 472 kts 133°
2026-04-15 15:16 -17.74537 -53.39736 38976 ft 472 kts 133°
2026-04-15 15:17 -17.78664 -53.34434 38976 ft 473 kts 133°
2026-04-15 15:17 -17.82827 -53.29083 38981 ft 473 kts 133°
2026-04-15 15:18 -17.86990 -53.23727 38984 ft 473 kts 133°
2026-04-15 15:18 -17.91149 -53.18371 38983 ft 473 kts 133°
2026-04-15 15:19 -17.95307 -53.13012 38980 ft 473 kts 133°
2026-04-15 15:19 -17.99468 -53.07647 38987 ft 473 kts 133°
2026-04-15 15:20 -18.03626 -53.02279 38987 ft 474 kts 134°
2026-04-15 15:20 -18.07784 -52.96907 38990 ft 474 kts 134°
2026-04-15 15:21 -18.11942 -52.91532 38989 ft 474 kts 134°
2026-04-15 15:21 -18.16082 -52.86174 38991 ft 474 kts 134°
2026-04-15 15:22 -18.20237 -52.80793 38989 ft 474 kts 134°
2026-04-15 15:22 -18.24397 -52.75400 38991 ft 474 kts 134°
2026-04-15 15:23 -18.28554 -52.70007 38989 ft 475 kts 134°
2026-04-15 15:23 -18.32713 -52.64607 38993 ft 475 kts 134°
2026-04-15 15:24 -18.36879 -52.59194 38987 ft 475 kts 134°
2026-04-15 15:24 -18.41032 -52.53793 38987 ft 475 kts 134°
2026-04-15 15:25 -18.45163 -52.48415 38989 ft 475 kts 134°
2026-04-15 15:25 -18.49314 -52.43007 38986 ft 475 kts 134°
2026-04-15 15:26 -18.53477 -52.37579 38988 ft 475 kts 134°
2026-04-15 15:26 -18.57616 -52.32177 38988 ft 475 kts 134°
2026-04-15 15:27 -18.61766 -52.26756 38982 ft 475 kts 134°
2026-04-15 15:27 -18.65919 -52.21327 38985 ft 475 kts 134°
2026-04-15 15:28 -18.70075 -52.15889 38984 ft 475 kts 134°
2026-04-15 15:28 -18.74220 -52.10461 38985 ft 475 kts 134°
2026-04-15 15:29 -18.78364 -52.05030 38981 ft 475 kts 134°
2026-04-15 15:29 -18.82504 -51.99599 38978 ft 475 kts 134°
2026-04-15 15:30 -18.86616 -51.94200 38982 ft 475 kts 134°
2026-04-15 15:30 -18.90750 -51.88767 38979 ft 475 kts 134°
2026-04-15 15:31 -18.94892 -51.83319 38984 ft 475 kts 134°
2026-04-15 15:31 -18.99026 -51.77877 38982 ft 475 kts 134°
2026-04-15 15:32 -19.03161 -51.72429 38982 ft 475 kts 134°
2026-04-15 15:32 -19.07291 -51.66982 38979 ft 474 kts 134°
2026-04-15 15:33 -19.11388 -51.61574 38981 ft 474 kts 134°
2026-04-15 15:33 -19.15515 -51.56122 38981 ft 474 kts 134°
2026-04-15 15:34 -19.19634 -51.50676 38985 ft 474 kts 134°
2026-04-15 15:34 -19.23759 -51.45216 38981 ft 474 kts 134°
2026-04-15 15:35 -19.27877 -51.39761 38978 ft 475 kts 134°
2026-04-15 15:35 -19.31999 -51.34297 38979 ft 475 kts 134°
2026-04-15 15:36 -19.36120 -51.28828 38979 ft 475 kts 134°
2026-04-15 15:36 -19.40211 -51.23394 38977 ft 475 kts 134°
2026-04-15 15:37 -19.44329 -51.17919 38979 ft 475 kts 134°
2026-04-15 15:37 -19.48445 -51.12442 38973 ft 475 kts 134°
2026-04-15 15:38 -19.52563 -51.06958 38971 ft 474 kts 133°
2026-04-15 15:38 -19.56672 -51.01480 38973 ft 474 kts 133°
2026-04-15 15:39 -19.60777 -50.96004 38977 ft 474 kts 133°
2026-04-15 15:39 -19.64855 -50.90557 38972 ft 474 kts 133°
2026-04-15 15:40 -19.68963 -50.85066 38976 ft 474 kts 133°
2026-04-15 15:40 -19.73062 -50.79582 38976 ft 474 kts 133°
2026-04-15 15:41 -19.77155 -50.74101 38977 ft 474 kts 133°
2026-04-15 15:41 -19.81249 -50.68614 38975 ft 474 kts 133°
2026-04-15 15:42 -19.85342 -50.63122 38978 ft 474 kts 133°
2026-04-15 15:42 -19.89427 -50.57639 38979 ft 474 kts 133°
2026-04-15 15:43 -19.93516 -50.52143 38983 ft 473 kts 133°
2026-04-15 15:43 -19.97572 -50.46688 38988 ft 473 kts 133°
2026-04-15 15:44 -20.01650 -50.41199 38984 ft 473 kts 133°
2026-04-15 15:44 -20.05722 -50.35711 38989 ft 472 kts 133°
2026-04-15 15:45 -20.09796 -50.30217 38988 ft 472 kts 133°
2026-04-15 15:45 -20.14312 -50.25262 38992 ft 466 kts 141°
2026-04-15 15:46 -20.19048 -50.20534 38990 ft 466 kts 141°
2026-04-15 15:46 -20.23757 -50.15862 38999 ft 466 kts 141°
2026-04-15 15:47 -20.28500 -50.11157 38995 ft 465 kts 141°
2026-04-15 15:47 -20.33235 -50.06456 38996 ft 465 kts 141°
2026-04-15 15:48 -20.37969 -50.01750 38996 ft 465 kts 141°
2026-04-15 15:48 -20.41894 -49.97846 39003 ft 464 kts 141°
2026-04-15 15:49 -20.46625 -49.93137 39006 ft 464 kts 141°
2026-04-15 15:49 -20.52103 -49.87679 39000 ft 464 kts 141°
2026-04-15 15:50 -20.56047 -49.83746 38999 ft 463 kts 141°
2026-04-15 15:50 -20.60758 -49.79044 38999 ft 463 kts 141°
2026-04-15 15:51 -20.65438 -49.74369 38998 ft 463 kts 141°
2026-04-15 15:51 -20.70136 -49.69672 39018 ft 463 kts 141°
2026-04-15 15:52 -20.74832 -49.64972 39034 ft 462 kts 141°
2026-04-15 15:52 -20.79526 -49.60270 39051 ft 462 kts 141°
2026-04-15 15:53 -20.84220 -49.55564 39062 ft 462 kts 141°
2026-04-15 15:53 -20.88902 -49.50867 39069 ft 461 kts 141°
2026-04-15 15:54 -20.93582 -49.46167 39065 ft 461 kts 141°
2026-04-15 15:54 -20.98260 -49.41465 39056 ft 461 kts 140°
2026-04-15 15:55 -21.02912 -49.36783 39038 ft 461 kts 140°
2026-04-15 15:55 -21.07584 -49.32079 39029 ft 461 kts 140°
2026-04-15 15:56 -21.12256 -49.27370 39011 ft 461 kts 140°
2026-04-15 15:56 -21.16914 -49.22671 39010 ft 460 kts 140°
2026-04-15 15:57 -21.21580 -49.17959 39007 ft 460 kts 140°
2026-04-15 15:57 -21.26216 -49.13273 39011 ft 460 kts 140°
2026-04-15 15:58 -21.30878 -49.08557 39008 ft 460 kts 140°
2026-04-15 15:58 -21.35539 -49.03837 39010 ft 460 kts 140°
2026-04-15 15:59 -21.40125 -48.99190 39009 ft 460 kts 140°
2026-04-15 15:59 -21.44735 -48.94513 39009 ft 459 kts 140°
2026-04-15 16:00 -21.49389 -48.89788 39012 ft 459 kts 139°
2026-04-15 16:00 -21.54029 -48.85072 39011 ft 459 kts 139°
2026-04-15 16:01 -21.58672 -48.80349 39014 ft 458 kts 139°
2026-04-15 16:01 -21.63257 -48.75681 39016 ft 458 kts 139°
2026-04-15 16:02 -21.67898 -48.70951 39020 ft 458 kts 139°
2026-04-15 16:02 -21.72527 -48.66230 39022 ft 458 kts 139°
2026-04-15 16:03 -21.77158 -48.61501 39021 ft 458 kts 139°
2026-04-15 16:03 -21.81786 -48.56772 39024 ft 458 kts 139°
2026-04-15 16:04 -21.86412 -48.52041 39019 ft 458 kts 139°
2026-04-15 16:04 -21.91033 -48.47309 39022 ft 458 kts 138°
2026-04-15 16:05 -21.95623 -48.42605 39033 ft 458 kts 138°
2026-04-15 16:05 -22.00246 -48.37863 39028 ft 458 kts 138°
2026-04-15 16:06 -22.04860 -48.33125 39037 ft 458 kts 138°
2026-04-15 16:06 -22.09478 -48.28379 39031 ft 458 kts 138°
2026-04-15 16:07 -22.14095 -48.23630 39035 ft 458 kts 138°
2026-04-15 16:07 -22.18689 -48.18899 38495 ft 458 kts 138°
2026-04-15 16:08 -22.21001 -48.16517 37918 ft 458 kts 138°
2026-04-15 16:08 -22.23292 -48.14155 37376 ft 454 kts 138°
2026-04-15 16:08 -22.25567 -48.11809 36861 ft 452 kts 138°
2026-04-15 16:08 -22.27842 -48.09462 36321 ft 450 kts 138°
2026-04-15 16:09 -22.30100 -48.07132 35804 ft 448 kts 138°
2026-04-15 16:09 -22.32315 -48.04845 35296 ft 446 kts 138°
2026-04-15 16:09 -22.34560 -48.02525 34787 ft 445 kts 138°
2026-04-15 16:09 -22.36791 -48.00220 34281 ft 443 kts 138°
2026-04-15 16:10 -22.39014 -47.97921 33730 ft 442 kts 138°
2026-04-15 16:10 -22.41236 -47.95622 33176 ft 441 kts 138°
2026-04-15 16:10 -22.43448 -47.93333 32673 ft 439 kts 138°
2026-04-15 16:10 -22.45646 -47.91057 32181 ft 436 kts 138°
2026-04-15 16:11 -22.47787 -47.88733 31657 ft 436 kts 132°
2026-04-15 16:11 -22.49682 -47.86169 31108 ft 436 kts 131°
2026-04-15 16:11 -22.51598 -47.83641 30642 ft 433 kts 131°
2026-04-15 16:11 -22.53498 -47.81123 30173 ft 432 kts 130°
2026-04-15 16:12 -22.55391 -47.78605 29601 ft 430 kts 130°
2026-04-15 16:12 -22.57272 -47.76101 29070 ft 428 kts 130°
2026-04-15 16:12 -22.59140 -47.73614 28596 ft 424 kts 130°
2026-04-15 16:12 -22.60988 -47.71151 28125 ft 420 kts 130°
2026-04-15 16:13 -22.62828 -47.68697 27642 ft 417 kts 130°
2026-04-15 16:13 -22.64648 -47.66269 27179 ft 414 kts 130°
2026-04-15 16:13 -22.66462 -47.63848 26706 ft 411 kts 130°
2026-04-15 16:13 -22.68258 -47.61450 26236 ft 409 kts 130°
2026-04-15 16:14 -22.70045 -47.59063 25775 ft 406 kts 130°
2026-04-15 16:14 -22.71795 -47.56725 25314 ft 404 kts 130°
2026-04-15 16:14 -22.73561 -47.54364 24871 ft 402 kts 130°
2026-04-15 16:14 -22.75319 -47.52013 24407 ft 400 kts 130°
2026-04-15 16:15 -22.77061 -47.49681 23933 ft 398 kts 130°
2026-04-15 16:15 -22.78805 -47.47344 23406 ft 398 kts 130°
2026-04-15 16:15 -22.80533 -47.45029 22896 ft 391 kts 130°
2026-04-15 16:15 -22.82215 -47.42774 22449 ft 377 kts 130°
2026-04-15 16:16 -22.83836 -47.40599 21991 ft 365 kts 130°
2026-04-15 16:16 -22.85409 -47.38489 21530 ft 355 kts 130°
2026-04-15 16:16 -22.86945 -47.36429 21076 ft 348 kts 129°
2026-04-15 16:16 -22.88481 -47.34366 20619 ft 352 kts 129°
2026-04-15 16:17 -22.90022 -47.32296 20173 ft 353 kts 129°
2026-04-15 16:17 -22.91569 -47.30218 19716 ft 353 kts 129°
2026-04-15 16:17 -22.93108 -47.28149 19289 ft 353 kts 129°
2026-04-15 16:17 -22.94655 -47.26068 18829 ft 353 kts 129°
2026-04-15 16:18 -22.96198 -47.23992 18378 ft 353 kts 129°
2026-04-15 16:18 -22.97725 -47.21938 17883 ft 346 kts 129°
2026-04-15 16:18 -22.99205 -47.19945 17429 ft 339 kts 129°
2026-04-15 16:18 -23.00667 -47.17977 16996 ft 331 kts 129°
2026-04-15 16:19 -23.02273 -47.16228 16484 ft 325 kts 147°
2026-04-15 16:19 -23.04322 -47.15288 16103 ft 317 kts 168°
2026-04-15 16:19 -23.06485 -47.14785 15702 ft 318 kts 168°
2026-04-15 16:19 -23.08646 -47.14268 15302 ft 318 kts 168°
2026-04-15 16:20 -23.10818 -47.13766 14888 ft 320 kts 168°
2026-04-15 16:20 -23.12983 -47.13277 14473 ft 320 kts 168°
2026-04-15 16:20 -23.15115 -47.12801 14071 ft 319 kts 169°
2026-04-15 16:20 -23.16932 -47.12398 13715 ft 319 kts 168°
2026-04-15 16:21 -23.19106 -47.11918 13264 ft 318 kts 169°
2026-04-15 16:21 -23.21229 -47.11449 12847 ft 310 kts 169°
2026-04-15 16:21 -23.23305 -47.10991 12464 ft 300 kts 168°
2026-04-15 16:21 -23.25353 -47.10541 12059 ft 301 kts 169°
2026-04-15 16:22 -23.27391 -47.10094 11621 ft 299 kts 169°
2026-04-15 16:22 -23.29428 -47.09648 11248 ft 296 kts 168°
2026-04-15 16:22 -23.31443 -47.09206 10888 ft 293 kts 168°
2026-04-15 16:22 -23.33417 -47.08774 10522 ft 286 kts 168°
2026-04-15 16:23 -23.35319 -47.08357 10169 ft 282 kts 168°
2026-04-15 16:23 -23.37269 -47.07929 9746 ft 279 kts 168°
2026-04-15 16:23 -23.39163 -47.07513 9379 ft 277 kts 168°
2026-04-15 16:23 -23.41039 -47.07045 9015 ft 278 kts 160°
2026-04-15 16:24 -23.42660 -47.05878 8548 ft 284 kts 132°
2026-04-15 16:24 -23.43673 -47.04045 8156 ft 282 kts 114°
2026-04-15 16:24 -23.44511 -47.02109 7754 ft 282 kts 116°
2026-04-15 16:24 -23.45358 -47.00181 7381 ft 281 kts 115°
2026-04-15 16:25 -23.46182 -46.98297 7055 ft 270 kts 115°
2026-04-15 16:25 -23.46592 -46.97350 6894 ft 266 kts 115°
2026-04-15 16:26 -23.47069 -46.96245 6667 ft 261 kts 115°
2026-04-15 16:26 -23.47831 -46.94472 6334 ft 253 kts 115°
2026-04-15 16:26 -23.48565 -46.92759 6025 ft 247 kts 113°
2026-04-15 16:26 -23.48983 -46.90978 5835 ft 236 kts 97°
2026-04-15 16:27 -23.49175 -46.89280 5865 ft 217 kts 97°
2026-04-15 16:27 -23.49362 -46.87715 5817 ft 201 kts 98°
2026-04-15 16:27 -23.49553 -46.86228 5741 ft 197 kts 98°
2026-04-15 16:27 -23.49734 -46.84745 5735 ft 198 kts 98°
2026-04-15 16:28 -23.49919 -46.83256 5713 ft 198 kts 98°
2026-04-15 16:28 -23.50107 -46.81769 5608 ft 198 kts 98°
2026-04-15 16:28 -23.50294 -46.80291 5471 ft 194 kts 98°
2026-04-15 16:28 -23.50474 -46.78847 5275 ft 190 kts 98°
2026-04-15 16:29 -23.50652 -46.77436 5089 ft 185 kts 98°
2026-04-15 16:29 -23.50827 -46.76078 5013 ft 179 kts 98°
2026-04-15 16:29 -23.50999 -46.74738 4866 ft 181 kts 98°
2026-04-15 16:29 -23.51398 -46.73462 4659 ft 179 kts 128°
2026-04-15 16:30 -23.52411 -46.72707 4599 ft 178 kts 156°
2026-04-15 16:30 -23.53520 -46.72061 4504 ft 183 kts 146°
2026-04-15 16:30 -23.54378 -46.71421 4324 ft 181 kts 145°
2026-04-15 16:30 -23.55423 -46.70671 4151 ft 176 kts 146°
2026-04-15 16:31 -23.56424 -46.69970 3922 ft 164 kts 146°
2026-04-15 16:31 -23.57344 -46.69332 3787 ft 151 kts 146°
2026-04-15 16:31 -23.58218 -46.68725 3571 ft 148 kts 146°
2026-04-15 16:31 -23.59090 -46.68117 3367 ft 149 kts 146°
2026-04-15 16:32 -23.59962 -46.67516 3214 ft 149 kts 146°
2026-04-15 16:32 -23.60837 -46.66920 2970 ft 150 kts 145°
2026-04-15 16:32 -23.61729 -46.66308 2743 ft 149 kts 146°
2026-04-15 16:32 -23.62577 -46.65699 2618 ft 141 kts 144°
2026-04-15 16:33 -23.63209 -46.65258 2612 ft 46 kts 149°
2026-04-15 16:33 -23.63410 -46.65249 2605 ft 5 kts 264°
2026-04-15 16:33 -23.63391 -46.65287 2604 ft 7 kts 318°
2026-04-15 16:33 -23.63345 -46.65320 2605 ft 9 kts 328°
2026-04-15 16:34 -23.63287 -46.65361 2605 ft 11 kts 327°
2026-04-15 16:34 -23.63216 -46.65410 2605 ft 13 kts 328°
2026-04-15 16:34 -23.63133 -46.65467 2605 ft 15 kts 328°
2026-04-15 16:34 -23.63033 -46.65518 2605 ft 17 kts 356°
2026-04-15 16:35 -23.62928 -46.65573 2605 ft 18 kts 327°
2026-04-15 16:35 -23.62869 -46.65614 2605 ft 6 kts 328°
2026-04-15 16:35 -23.62843 -46.65662 2604 ft 9 kts 283°
2026-04-15 16:35 -23.62792 -46.65716 2604 ft 12 kts 328°
2026-04-15 16:36 -23.62717 -46.65767 2603 ft 14 kts 327°
2026-04-15 16:36 -23.62653 -46.65812 2603 ft 1 kts 327°
2026-04-15 16:36 -23.62641 -46.65824 2603 ft 3 kts 300°
2026-04-15 16:36 -23.62647 -46.65847 2603 ft 4 kts 237°
2026-04-15 16:37 -23.62655 -46.65860 2603 ft 1 kts 237°
2026-04-15 16:37 -23.62656 -46.65862 2603 ft 0 kts 238°